Location: Namasale
(1.5000°N, 32.6167°E)
Time: 00:02:46
(UTC+00:00)

Transit 2A - Pass Details

Date: 28 April 2021
Orbit: 602 x 957 km, 66.7° (Epoch: 11 May)

Event Time Altitude Azimuth Distance (km) Brightness Sun altitude
Rises 01:22:26 0° 198° (SSW) 3,403 - -34.4°
Reaches altitude 10° 01:25:01 10° 197° (SSW) 2,411 - -33.8°
Maximum altitude 01:30:32 82° 111° (ESE) 767 - -32.5°
Exits shadow 01:32:49 34° 26° (NNE) 1,198 7.2 -32.0°
Drops below altitude 10° 01:35:29 10° 22° (NNE) 2,164 8.8 -31.3°
Sets 01:37:41 0° 22° (NNE) 3,030 9.6 -30.8°
